Location: Banff
(51.1667°N, 115.5667°W)
Time: 06:46:33
(UTC+00:00)

S-56A Canister/Altair - Pass Details

Date: 28 November 2020
Orbit: 633 x 2499 km, 38.9° (Epoch: 21 January)

Event Time Altitude Azimuth Distance (km) Brightness Sun altitude
Rises 08:22:20 0° 264° (W) 4,000 - -58.6°
Reaches altitude 10° 08:26:56 10° 241° (WSW) 2,655 - -58.3°
Maximum altitude 08:29:45 13° 213° (SSW) 2,208 - -58.1°
Drops below altitude 10° 08:32:14 10° 184° (S) 2,281 - -57.9°
Sets 08:35:38 0° 156° (SSE) 3,025 - -57.6°
